Location: Unspecified
(42.3650°N, 71.1030°W)
Time: 10:33:28
(UTC+00:00)

Courier 1B - Pass Details

Date: 02 July 2024
Orbit: 962 x 1209 km, 28.3° (Epoch: 13 July)

Event Time Altitude Azimuth Distance (km) Brightness Sun altitude
Rises 01:38:26 0° 229° (SW) 3,627 10.5 -11.3°
Reaches altitude 10° 01:41:47 10° 213° (SSW) 2,687 9.7 -11.7°
Maximum altitude 01:46:17 20° 168° (SSE) 2,078 8.7 -12.3°
Enters shadow 01:48:36 17° 142° (SE) 2,274 8.8 -12.6°
Drops below altitude 10° 01:50:53 10° 124° (ESE) 2,747 - -12.8°
Sets 01:54:20 0° 108° (ESE) 3,734 - -13.3°
